Location: Shenandoah County Park
(38.9356°N, 78.4524°W)
Time: 18:20:10
(UTC-05:00)

Courier 1B Rocket - All Passes

Search period start: 03 December 2023 00:00
Search period end: 13 December 2023 00:00
Orbit: 920 x 1201 km, 28.2° (Epoch: 03 December)

Date Brightness Start Highest point End Pass type
(mag) Time Alt. Az. Time Alt. Az. Time Alt. Az.
03 Dec - 11:04:12 10° SSE 11:04:49 10° SSE 11:05:27 10° SSE daylight
03 Dec - 12:52:23 10° SW 12:57:20 23° SSE 13:02:09 10° ESE daylight
03 Dec - 14:44:32 10° WSW 14:49:59 31° S 14:55:22 10° ESE daylight
03 Dec - 16:37:43 10° WSW 16:42:38 24° SSW 16:47:35 10° SE daylight
03 Dec - 18:33:20 10° SW 18:35:06 11° SSW 18:36:53 10° S visible
04 Dec - 11:51:58 10° SSW 11:56:29 19° SSE 12:00:52 10° ESE daylight
04 Dec - 13:43:39 10° SW 13:49:07 30° S 13:54:28 10° ESE daylight
04 Dec - 15:36:34 10° WSW 15:41:48 28° S 15:46:59 10° SE daylight
04 Dec - 17:30:50 10° SW 17:34:19 15° SSW 17:37:50 10° SSE visible
05 Dec - 10:51:54 10° SSW 10:55:37 15° SSE 10:59:15 10° SE daylight
05 Dec - 12:42:48 10° SW 12:48:14 28° S 12:53:28 10° ESE daylight
05 Dec - 14:35:29 10° WSW 14:40:56 30° S 14:46:17 10° SE daylight
05 Dec - 16:29:09 10° WSW 16:33:31 20° SSW 16:37:53 10° SSE daylight
06 Dec - 09:52:42 10° S 09:54:45 11° SSE 09:56:46 10° SE daylight
06 Dec - 11:42:04 10° SW 11:47:21 25° SSE 11:52:25 10° ESE daylight
06 Dec - 13:34:25 10° WSW 13:40:04 31° S 13:45:31 10° ESE daylight
06 Dec - 15:27:46 10° WSW 15:32:43 24° SSW 15:37:35 10° SE daylight
06 Dec - 17:23:57 10° SW 17:25:07 11° SSW 17:26:18 10° SSW visible
07 Dec - 10:41:30 10° SSW 10:46:27 21° SSE 10:51:11 10° ESE daylight
07 Dec - 12:33:24 10° SW 12:39:10 31° S 12:44:40 10° ESE daylight
07 Dec - 14:26:30 10° WSW 14:31:52 28° S 14:37:05 10° SE daylight
07 Dec - 16:20:58 10° SW 16:24:21 15° SSW 16:27:44 10° S daylight
08 Dec - 09:41:16 10° SSW 09:45:32 17° SSE 09:49:39 10° ESE daylight
08 Dec - 11:32:27 10° SW 11:38:14 29° S 11:43:44 10° ESE daylight
08 Dec - 13:25:18 10° WSW 13:31:00 31° S 13:36:28 10° SE daylight
08 Dec - 15:19:09 10° WSW 15:23:35 20° SSW 15:27:56 10° SSE daylight
09 Dec - 08:41:41 10° S 08:44:36 13° SSE 08:47:27 10° SE daylight
09 Dec - 10:31:36 10° SW 10:37:17 26° SSE 10:42:41 10° ESE daylight
09 Dec - 12:24:08 10° WSW 12:30:05 33° S 12:35:44 10° ESE daylight
09 Dec - 14:17:38 10° WSW 14:22:46 25° SSW 14:27:43 10° SE daylight
09 Dec - 16:14:14 10° SW 16:15:09 10° SSW 16:16:04 10° SSW daylight
10 Dec - 09:30:56 10° SSW 09:36:19 22° SSE 09:41:27 10° ESE daylight
10 Dec - 11:23:00 10° WSW 11:29:07 32° S 11:34:54 10° ESE daylight
10 Dec - 13:16:16 10° WSW 13:21:54 29° S 13:27:17 10° SE daylight
10 Dec - 15:10:54 10° WSW 15:14:23 15° SSW 15:17:50 10° S daylight
11 Dec - 08:30:35 10° SSW 08:35:21 18° SSE 08:39:56 10° ESE daylight
11 Dec - 10:21:58 10° SW 10:28:08 31° S 10:33:58 10° ESE daylight
11 Dec - 12:14:57 10° WSW 12:20:59 32° S 12:26:41 10° SE daylight
11 Dec - 14:08:57 10° WSW 14:13:36 20° SSW 14:18:06 10° SSE daylight
12 Dec - 07:30:48 10° S 07:34:22 14° SSE 07:37:51 10° SE daylight
12 Dec - 09:21:02 10° SW 09:27:08 28° SSE 09:32:54 10° ESE daylight
12 Dec - 11:13:42 10° WSW 11:20:01 34° S 11:25:57 10° ESE daylight
12 Dec - 13:07:21 10° WSW 13:12:46 25° SSW 13:17:56 10° SE daylight
12 Dec - 15:03:54 10° SW 15:05:09 11° SSW 15:06:23 10° SSW daylight
